DW0805 Weather Reports


time (UTC)temp
F
wind
direction
speed
knots
gust
knots
rain 1hr
in
rain 24hr
in
rain mn
in
humidity
%
barometer
mb
20260506044512 45 24 1.7 5.2 0.00 0.00 0.00 74 1011.0
20260506043513 43 19 0.9 2.6 0.00 0.00 0.00 79 1011.0
20260506041513 39 25 0.0 0.0 0.00 0.00 0.00 79 1011.0
20260506040513 39 29 0.0 0.9 0.00 0.00 0.00 77 1010.9
20260506035513 39 30 0.0 0.9 0.00 0.00 0.00 76 1010.8
20260506034513 39 30 0.0 1.7 0.00 0.00 0.00 75 1010.9
20260506033512 39 30 0.0 2.6 0.00 0.00 0.00 74 1011.0
20260506032513 39 38 1.7 2.6 0.00 0.00 0.00 74 1011.0
20260506031512 39 20 0.0 2.6 0.00 0.00 0.00 73 1011.0
20260506030513 40 10 0.9 2.6 0.00 0.00 0.00 71 1011.1
20260506023512 41 42 1.7 5.2 0.00 0.00 0.00 71 1011.2
20260506022513 41 31 0.9 4.3 0.00 0.00 0.00 72 1011.3
20260506020513 43 55 0.0 2.6 0.00 0.00 0.00 68 1011.4
20260506015513 43 53 0.9 5.2 0.00 0.00 0.00 66 1011.5
20260506003513 43 20 1.7 6.1 0.00 0.00 0.00 75 1011.0
20260506000512 43 44 2.6 6.1 0.00 0.00 0.00 79 1010.9
20260505235513 43 33 2.6 5.2 0.00 0.00 0.00 81 1011.0
20260505232512 41 33 1.7 6.1 0.00 0.00 0.00 86 1011.0
20260505231513 41 28 0.9 4.3 0.00 0.00 0.00 87 1011.0
20260505230512 41 3 0.9 2.6 0.00 0.00 0.00 87 1011.1
20260505225512 41 22 0.9 2.6 0.00 0.00 0.00 87 1011.1
20260505221509 41 5 0.9 4.3 0.00 0.00 0.00 88 1011.2
20260505214514 40 9 0.9 2.6 0.00 0.00 0.00 88 1011.3
20260505213512 40 5 0.9 2.6 0.00 0.00 0.00 87 1011.3
20260505210513 40 349 0.9 1.7 0.00 0.00 0.00 84 1011.5
20260505205512 41 349 0.9 1.7 0.00 0.00 0.00 83 1011.4
20260505203513 42 349 0.0 1.7 0.00 0.00 0.00 82 1011.4
20260505201513 43 349 0.0 0.9 0.00 0.00 0.00 80 1011.4
20260505195513 44 349 0.0 1.7 0.00 0.00 0.00 78 1011.5
20260505194513 44 349 0.9 4.3 0.00 0.00 0.00 76 1011.5
20260505190513 47 355 0.0 0.9 0.00 0.00 0.00 70 1011.4
20260505183513 49 350 0.9 4.3 0.00 0.00 0.00 65 1011.1
20260505182513 50 355 1.7 4.3 0.00 0.00 0.00 63 1011.1
20260505174513 52 18 2.6 7.0 0.00 0.00 0.00 53 1011.1
20260505172513 53 356 3.5 7.8 0.00 0.00 0.00 54 1011.1
20260505171514 54 15 2.6 7.8 0.00 0.00 0.00 53 1011.2
20260505161513 55 23 4.3 8.7 0.00 0.00 0.00 57 1011.2
20260505160513 56 7 5.2 10.4 0.00 0.00 0.00 58 1011.3
20260505152514 57 0 5.2 11.3 0.00 0.00 0.00 56 1011.4
20260505140513 57 346 5.2 13.0 0.00 0.00 0.00 62 1011.4
20260505124514 57 331 5.2 8.7 0.00 0.00 0.00 61 1011.5
20260505120513 56 303 5.2 12.2 0.00 0.00 0.00 65 1011.6
20260505115513 56 331 6.1 11.3 0.00 0.00 0.00 63 1011.6
20260505114513 56 350 5.2 10.4 0.00 0.00 0.00 65 1011.7
20260505113512 57 349 5.2 12.2 0.00 0.00 0.00 63 1011.7
20260505112513 56 347 5.2 13.0 0.00 0.00 0.00 64 1011.5
20260505101514 55 356 5.2 10.4 0.00 0.00 0.00 71 1011.8
20260505095514 55 305 6.1 8.7 0.00 0.00 0.00 72 1011.8
20260505094513 55 347 5.2 11.3 0.00 0.00 0.00 73 1011.8
20260505091513 55 304 5.2 12.2 0.00 0.00 0.00 69 1011.7
20260505085514 54 2 2.6 10.4 0.00 0.00 0.00 72 1011.7
20260505081515 53 334 4.3 10.4 0.00 0.01 0.00 74 1011.6
20260505075513 54 311 4.3 8.7 0.00 0.01 0.00 75 1011.4
20260505073513 53 333 5.2 12.2 0.00 0.01 0.00 78 1011.4
20260505071513 50 338 7.0 10.4 0.00 0.01 0.00 80 1011.4
20260505065513 51 356 4.3 8.7 0.00 0.01 0.00 83 1011.3
20260505064513 50 322 4.3 12.2 0.00 0.01 0.00 81 1011.3
20260505063513 51 309 5.2 13.0 0.00 0.01 0.00 81 1011.2
20260505062513 50 307 6.1 8.7 0.00 0.01 0.00 80 1011.3